Location: Riverside Cemetery
(38.3047°N, 99.7773°W)
Time: 11:36:01
(UTC+00:00)

MINOTAUR IV R/B - Pass Details

Date: 19 September 2020
Orbit: 622 x 642 km, 72.0° (Epoch: 15 October)

Event Time Altitude Azimuth Distance (km) Brightness Sun altitude
Rises 01:49:24 0° 340° (NNW) 2,908 8.5 -14.0°
Reaches altitude 10° 01:51:40 10° 342° (NNW) 1,998 7.6 -14.5°
Maximum altitude 01:56:09 77° 68° (ENE) 644 4.5 -15.3°
Enters shadow 01:59:46 15° 154° (SSE) 1,658 6.4 -16.0°
